EW0408 Weather Reports


Display with metric or nautical units.
time (UTC)temp
F
wind
direction
speed
MPH
gust
MPH
rain 1hr
in
rain 24hr
in
rain mn
in
humidity
%
barometer
mb
20260510090004 74 0 0.0 0.0 0.00 0.00 0.00 87 1014.0
20260510085025 74 0 0.0 0.0 0.00 0.00 0.00 87 1013.9
20260510084004 75 0 0.0 0.0 0.00 0.00 0.00 86 1014.0
20260510083004 75 0 0.0 0.0 0.00 0.00 0.00 87 1014.0
20260510082004 75 0 0.0 0.0 0.00 0.00 0.00 87 1013.9
20260510081005 75 0 0.0 0.0 0.00 0.00 0.00 86 1013.9
20260510080005 75 0 0.0 0.0 0.00 0.00 0.00 85 1014.2
20260510075025 76 0 0.0 0.0 0.00 0.00 0.00 86 1013.9
20260510074004 76 0 0.0 0.0 0.00 0.00 0.00 85 1014.1
20260510073005 76 34 1.0 4.0 0.00 0.00 0.00 85 1014.1
20260510072004 76 46 0.0 3.0 0.00 0.00 0.00 84 1014.2
20260510071004 76 33 2.0 4.0 0.00 0.00 0.00 84 1014.1
20260510070004 76 32 2.0 4.0 0.00 0.00 0.00 84 1014.2
20260510065004 76 49 3.0 4.0 0.00 0.00 0.00 84 1014.3
20260510064025 76 18 1.0 4.0 0.00 0.00 0.00 84 1014.6
20260510063004 76 0 0.0 0.0 0.00 0.00 0.00 83 1014.8
20260510062004 76 0 0.0 0.0 0.00 0.00 0.00 82 1014.8
20260510061004 76 2 1.0 3.0 0.00 0.00 0.00 82 1014.9
20260510060005 77 8 2.0 4.0 0.00 0.00 0.00 82 1014.7
20260510055004 77 32 2.0 4.0 0.00 0.00 0.00 82 1014.8
20260510054005 77 355 1.0 3.0 0.00 0.00 0.00 82 1015.1
20260510053004 77 0 0.0 0.0 0.00 0.00 0.00 81 1015.2
20260510052004 77 0 0.0 0.0 0.00 0.00 0.00 81 1015.4
20260510051025 77 356 0.0 2.0 0.00 0.00 0.00 81 1015.3
20260510050004 77 18 3.0 5.0 0.00 0.00 0.00 81 1015.3
20260510045004 78 22 3.0 7.0 0.00 0.00 0.00 81 1015.4
20260510044004 78 39 6.0 9.0 0.00 0.00 0.00 81 1015.5
20260510043004 78 357 3.0 8.0 0.00 0.00 0.00 80 1015.4
20260510042005 78 360 3.0 6.0 0.00 0.00 0.00 79 1015.5
20260510041025 78 29 5.0 9.0 0.00 0.00 0.00 80 1015.4
20260510040025 79 15 4.0 8.0 0.00 0.00 0.00 79 1015.6
20260510035004 79 4 4.0 8.0 0.00 0.00 0.00 78 1015.3
20260510034025 80 343 3.0 7.0 0.00 0.00 0.00 77 1015.4
20260510033004 80 345 3.0 7.0 0.00 0.00 0.00 76 1015.4
20260510032004 80 354 3.0 8.0 0.00 0.00 0.00 75 1015.4
20260510031025 81 10 5.0 8.0 0.00 0.00 0.00 74 1015.4
20260510030004 82 359 5.0 9.0 0.00 0.00 0.00 73 1015.2
20260510025025 83 321 1.0 7.0 0.00 0.00 0.00 66 1015.2
20260510024004 82 288 0.0 6.0 0.00 0.00 0.00 62 1014.9
20260510023004 82 313 1.0 5.0 0.00 0.00 0.00 62 1014.9
20260510022004 83 300 1.0 5.0 0.00 0.00 0.00 62 1014.8
20260510021004 82 274 2.0 6.0 0.00 0.00 0.00 62 1014.6
20260510020025 82 285 2.0 7.0 0.00 0.00 0.00 62 1014.4
20260510015004 83 284 2.0 5.0 0.00 0.00 0.00 61 1014.3
20260510014004 83 272 1.0 4.0 0.00 0.00 0.00 60 1014.0
20260510013003 84 269 2.0 5.0 0.00 0.00 0.00 59 1013.9
20260510012004 84 275 2.0 6.0 0.00 0.00 0.00 59 1013.7
20260510011004 85 269 1.0 5.0 0.00 0.00 0.00 58 1013.6
20260510010025 85 271 2.0 5.0 0.00 0.00 0.00 58 1013.2
20260510005004 86 270 3.0 6.0 0.00 0.00 0.00 57 1012.9
20260510004004 86 265 3.0 6.0 0.00 0.00 0.00 57 1012.8
20260510003004 86 253 3.0 7.0 0.00 0.00 0.00 57 1012.8
20260510002025 87 261 3.0 8.0 0.00 0.00 0.00 56 1012.6
20260510001004 88 272 3.0 9.0 0.00 0.00 0.00 55 1012.3
20260510000004 88 265 4.0 9.0 0.00 0.00 0.00 54 1011.9
20260509235004 89 255 3.0 8.0 0.00 0.00 0.00 54 1011.8
20260509234004 90 263 3.0 7.0 0.00 0.00 0.00 52 1011.8
20260509233004 90 237 5.0 10.0 0.00 0.00 0.00 51 1011.7
20260509232003 91 244 5.0 11.0 0.00 0.00 0.00 50 1011.5
20260509231024 91 248 4.0 9.0 0.00 0.00 0.00 49 1011.4
20260509230005 92 229 5.0 12.0 0.00 0.00 0.00 49 1011.3
20260509225004 92 251 5.0 12.0 0.00 0.00 0.00 50 1011.4
20260509224004 92 246 5.0 12.0 0.00 0.00 0.00 50 1011.2
20260509223025 92 235 5.0 11.0 0.00 0.00 0.00 50 1011.2
20260509222004 93 224 4.0 12.0 0.00 0.00 0.00 49 1011.1
20260509221025 93 230 6.0 10.0 0.00 0.00 0.00 50 1011.2
20260509220025 93 227 5.0 12.0 0.00 0.00 0.00 50 1010.9
20260509215003 94 239 5.0 13.0 0.00 0.00 0.00 50 1010.9
20260509214003 93 215 6.0 12.0 0.00 0.00 0.00 51 1010.9
20260509213004 93 234 7.0 16.0 0.00 0.00 0.00 51 1010.9
20260509212004 94 237 7.0 12.0 0.00 0.00 0.00 50 1010.8
20260509211004 93 209 5.0 16.0 0.00 0.00 0.00 52 1010.8
20260509210004 92 220 4.0 12.0 0.00 0.00 0.00 54 1010.9
20260509205004 93 210 4.0 10.0 0.00 0.00 0.00 53 1010.9
20260509204004 93 230 6.0 15.0 0.00 0.00 0.00 52 1011.0
20260509203004 94 217 7.0 16.0 0.00 0.00 0.00 52 1010.9
20260509202004 95 235 5.0 16.0 0.00 0.00 0.00 51 1011.1
20260509201004 94 248 6.0 12.0 0.00 0.00 0.00 50 1011.2
20260509200025 94 231 3.0 8.0 0.00 0.00 0.00 52 1011.3
20260509195004 93 218 5.0 12.0 0.00 0.00 0.00 51 1011.5
20260509194004 94 219 6.0 15.0 0.00 0.00 0.00 49 1011.5
20260509193025 95 230 4.0 12.0 0.00 0.00 0.00 49 1011.7
20260509192003 94 220 5.0 11.0 0.00 0.00 0.00 50 1011.7
20260509191003 95 242 6.0 12.0 0.00 0.00 0.00 48 1011.9
20260509190004 96 229 4.0 16.0 0.00 0.00 0.00 49 1011.9
20260509185003 95 212 5.0 13.0 0.00 0.00 0.00 49 1012.1
20260509184024 95 217 3.0 12.0 0.00 0.00 0.00 50 1012.1
20260509183004 95 210 3.0 8.0 0.00 0.00 0.00 47 1012.4
20260509182004 94 225 4.0 11.0 0.00 0.00 0.00 50 1012.4
20260509181003 93 204 4.0 13.0 0.00 0.00 0.00 51 1012.4
20260509180025 93 215 4.0 13.0 0.00 0.00 0.00 49 1012.5
20260509175004 93 221 5.0 15.0 0.00 0.00 0.00 51 1012.6
20260509174004 94 219 5.0 14.0 0.00 0.00 0.00 49 1012.7
20260509173003 93 223 5.0 13.0 0.00 0.00 0.00 51 1012.8
20260509172003 93 232 6.0 17.0 0.00 0.00 0.00 49 1012.8
20260509171004 93 230 6.0 13.0 0.00 0.00 0.00 51 1012.9
20260509170004 92 217 6.0 16.0 0.00 0.00 0.00 51 1013.0
20260509165025 92 223 3.0 12.0 0.00 0.00 0.00 53 1013.2
20260509164025 93 215 3.0 8.0 0.00 0.00 0.00 53 1013.4
20260509163004 93 209 3.0 9.0 0.00 0.00 0.00 52 1013.5
20260509162025 93 199 3.0 11.0 0.00 0.00 0.00 54 1013.4
20260509161003 92 206 2.0 8.0 0.00 0.00 0.00 57 1013.6
20260509160003 91 210 5.0 15.0 0.00 0.00 0.00 57 1013.8
20260509155003 91 201 3.0 9.0 0.00 0.00 0.00 57 1013.9
20260509154003 91 198 3.0 10.0 0.00 0.00 0.00 57 1014.1
20260509153024 91 205 2.0 8.0 0.00 0.00 0.00 58 1014.2
20260509152003 91 161 0.0 6.0 0.00 0.00 0.00 59 1014.4
20260509151024 91 0 0.0 0.0 0.00 0.00 0.00 61 1014.4
20260509150004 90 149 0.0 4.0 0.00 0.00 0.00 62 1014.3
20260509145004 89 121 0.0 5.0 0.00 0.00 0.00 64 1014.3
20260509144003 89 0 0.0 0.0 0.00 0.00 0.00 65 1014.2
20260509143005 88 0 0.0 0.0 0.00 0.00 0.00 68 1014.3
20260509142024 87 0 0.0 0.0 0.00 0.00 0.00 69 1014.3
20260509141004 87 0 0.0 0.0 0.00 0.00 0.00 69 1014.4
20260509140005 86 0 0.0 0.0 0.00 0.00 0.00 69 1014.3
20260509135024 85 0 0.0 0.0 0.00 0.00 0.00 71 1014.2
20260509134003 84 0 0.0 0.0 0.00 0.00 0.00 72 1014.3
20260509133004 83 0 0.0 0.0 0.00 0.00 0.00 75 1014.2
20260509132004 83 0 0.0 0.0 0.00 0.00 0.00 74 1014.3
20260509131004 82 0 0.0 0.0 0.00 0.00 0.00 77 1014.4
20260509130004 80 46 1.0 4.0 0.00 0.00 0.00 81 1014.4
20260509125004 79 51 3.0 5.0 0.00 0.00 0.00 82 1014.2
20260509124003 78 48 3.0 6.0 0.00 0.00 0.00 83 1014.0
20260509123024 78 51 3.0 4.0 0.00 0.00 0.00 84 1013.8
20260509122024 77 47 5.0 8.0 0.00 0.00 0.00 86 1013.8
20260509121003 77 48 4.0 8.0 0.00 0.00 0.00 87 1013.6
20260509120004 76 41 3.0 5.0 0.00 0.00 0.00 87 1013.6
20260509115003 76 28 3.0 5.0 0.00 0.00 0.00 88 1013.5
20260509114025 75 48 1.0 5.0 0.00 0.00 0.00 90 1013.6
20260509113004 73 0 0.0 0.0 0.00 0.00 0.00 92 1013.5
20260509112003 72 0 0.0 0.0 0.00 0.00 0.00 91 1013.5
20260509111003 72 0 0.0 0.0 0.00 0.00 0.00 91 1013.3
20260509110003 71 0 0.0 0.0 0.00 0.00 0.00 90 1013.2
20260509105024 71 0 0.0 0.0 0.00 0.00 0.00 90 1013.4
20260509104024 71 0 0.0 0.0 0.00 0.00 0.00 90 1013.2
20260509103003 71 0 0.0 0.0 0.00 0.00 0.00 89 1013.2
20260509102004 72 0 0.0 0.0 0.00 0.00 0.00 89 1013.2
20260509101003 72 0 0.0 0.0 0.00 0.00 0.00 89 1013.0
20260509100024 72 0 0.0 0.0 0.00 0.00 0.00 89 1013.0
20260509095004 72 0 0.0 0.0 0.00 0.00 0.00 89 1012.9
20260509094004 72 0 0.0 0.0 0.00 0.00 0.00 88 1012.9
20260509093004 72 0 0.0 0.0 0.00 0.00 0.00 88 1013.0
20260509092004 73 0 0.0 0.0 0.00 0.00 0.00 88 1012.9
20260509091005 73 0 0.0 0.0 0.00 0.00 0.00 87 1012.9